Total_Precipitation_Accumulation
0.78 0.80 0.83 0.78 0.75 0.72 0.74 0.90 1.15 0.98 0.54 0.32 0.30 0.33 0.43 0.54 0.65 0.69 0.65 0.72 0.75 0.78 0.87 0.96 1.02 1.08 1.24 1.60 2.33 3.24 3.97 4.17 3.90 3.38 3.14 3.38 3.73 4.22
0.86 0.85 0.86 0.83 0.81 0.79 0.80 0.82 0.96 1.12 0.83 0.37 0.31 0.32 0.42 0.54 0.64 0.65 0.62 0.69 0.72 0.76 0.79 0.85 0.95 1.07 1.18 1.33 1.67 2.38 3.19 3.86 4.15 4.12 3.91 3.83 4.02 4.32
1.00 1.00 0.93 0.89 0.93 0.89 0.87 0.87 0.88 1.01 1.03 0.49 0.32 0.36 0.49 0.60 0.64 0.62 0.60 0.60 0.60 0.70 0.75 0.79 0.84 0.94 1.08 1.21 1.38 1.77 2.46 3.14 3.75 4.18 4.43 4.39 4.34 4.35
1.11 1.09 1.05 1.03 1.01 0.97 1.01 0.98 0.91 0.89 1.01 0.77 0.45 0.42 0.49 0.57 0.64 0.68 0.66 0.64 0.60 0.67 0.71 0.78 0.84 0.91 0.99 1.10 1.24 1.42 1.80 2.35 2.96 3.55 3.99 4.14 4.21 4.43
1.16 1.19 1.16 1.16 1.14 1.09 1.09 1.10 1.04 0.95 0.97 0.97 0.67 0.50 0.54 0.61 0.72 0.76 0.76 0.78 0.73 0.75 0.76 0.80 0.88 0.94 0.99 1.07 1.19 1.32 1.43 1.68 2.12 2.79 3.48 3.79 3.84 3.95
1.18 1.22 1.25 1.28 1.28 1.29 1.35 1.33 1.31 1.31 1.22 1.17 0.95 0.73 0.70 0.72 0.82 0.86 0.84 0.82 0.84 0.80 0.84 0.82 0.86 0.91 0.94 0.97 1.01 1.09 1.25 1.57 1.90 2.29 2.86 3.31 3.43 3.47
1.27 1.25 1.26 1.37 1.52 1.68 1.81 1.73 1.62 1.66 1.59 1.51 1.31 1.08 0.93 0.93 1.02 0.95 0.96 0.88 0.91 0.91 0.88 0.82 0.80 0.77 0.81 0.92 1.03 1.10 1.18 1.37 1.63 1.96 2.39 2.86 3.18 3.26
1.23 1.17 1.18 1.26 1.34 1.48 1.67 1.70 1.69 1.81 1.88 1.80 1.61 1.38 1.09 0.98 1.09 1.23 1.30 1.32 1.20 0.99 1.00 0.98 0.91 0.90 0.87 0.88 1.04 1.12 1.22 1.38 1.52 1.71 2.07 2.43 2.82 3.17
1.04 1.01 1.01 1.07 1.19 1.11 1.25 1.34 1.40 1.50 1.67 1.79 1.84 1.53 1.29 1.19 1.41 1.60 1.58 1.53 1.25 1.05 1.20 1.31 1.17 1.11 1.02 1.05 1.16 1.12 1.20 1.33 1.47 1.60 1.76 2.06 2.43 2.84
0.97 0.96 0.94 0.94 1.03 1.20 1.26 1.23 1.13 1.14 1.33 1.51 1.68 1.57 1.46 1.51 1.79 2.05 2.09 2.07 1.72 1.38 1.34 1.56 1.39 1.32 1.26 1.21 1.23 1.15 1.18 1.24 1.33 1.49 1.67 1.86 2.09 2.42
1.00 1.02 1.03 0.95 1.11 1.34 1.37 1.31 1.14 1.03 1.12 1.36 1.57 1.67 1.76 1.92 2.16 2.49 2.60 2.66 2.44 1.94 1.64 1.67 1.57 1.50 1.49 1.44 1.39 1.32 1.24 1.23 1.23 1.33 1.50 1.69 1.93 2.20
1.02 1.07 1.24 1.21 1.25 1.34 1.36 1.42 1.39 1.12 0.99 1.07 1.16 1.27 1.36 1.53 1.88 2.12 2.32 2.57 2.51 2.34 1.89 1.81 1.81 1.80 1.97 1.64 1.40 1.30 1.24 1.28 1.24 1.20 1.25 1.41 1.69 1.87
1.12 1.13 1.18 1.32 1.30 1.34 1.39 1.38 1.43 1.31 1.19 1.19 1.16 1.14 1.22 1.36 1.54 1.77 2.03 2.33 2.51 2.36 1.90 2.04 2.23 2.08 2.09 1.83 1.49 1.34 1.24 1.18 1.11 1.10 1.14 1.24 1.44 1.64
1.17 1.03 1.09 1.29 1.29 1.35 1.33 1.39 1.45 1.43 1.34 1.30 1.21 1.10 1.11 1.24 1.33 1.53 1.82 2.00 2.12 2.13 1.89 2.10 2.49 2.23 2.19 1.94 1.66 1.49 1.36 1.28 1.15 1.05 0.99 1.17 1.32 1.50
1.23 1.31 1.24 1.29 1.29 1.21 1.21 1.30 1.31 1.27 1.34 1.33 1.18 1.02 0.96 1.08 1.21 1.39 1.62 1.85 1.95 1.97 1.95 1.97 2.20 2.24 2.29 2.15 1.72 1.51 1.51 1.49 1.30 1.15 1.06 1.01 1.05 1.22
1.29 1.37 1.36 1.28 1.25 1.22 1.20 1.19 1.15 1.21 1.30 1.25 1.09 0.98 0.97 1.08 1.25 1.37 1.56 1.75 1.99 1.99 1.93 1.96 2.14 2.42 2.45 2.01 1.78 1.62 1.47 1.59 1.46 1.29 1.18 1.09 1.04 1.05
1.52 1.50 1.43 1.36 1.36 1.27 1.18 1.14 1.13 1.20 1.26 1.14 1.10 1.11 1.12 1.17 1.24 1.29 1.46 1.62 1.83 1.79 1.80 1.96 2.15 2.34 2.46 2.31 2.10 1.73 1.50 1.44 1.41 1.37 1.32 1.26 1.20 1.15
1.55 1.51 1.35 1.24 1.21 1.18 1.18 1.17 1.11 1.08 1.08 1.10 1.14 1.14 1.16 1.19 1.22 1.23 1.35 1.52 1.63 1.61 1.65 1.80 2.04 2.31 2.52 2.62 2.33 1.89 1.61 1.51 1.47 1.43 1.36 1.34 1.33 1.29
1.27 1.19 1.12 1.09 1.09 1.09 1.09 1.10 1.06 0.97 1.00 1.09 1.14 1.15 1.16 1.20 1.23 1.24 1.29 1.40 1.48 1.52 1.58 1.71 1.95 2.22 2.29 2.26 2.34 2.04 1.78 1.64 1.57 1.59 1.51 1.35 1.33 1.33
1.04 1.02 1.02 1.01 1.03 1.07 1.05 1.04 1.01 0.99 1.02 1.07 1.11 1.12 1.17 1.23 1.23 1.20 1.21 1.31 1.39 1.44 1.50 1.60 1.81 2.11 2.29 2.12 2.12 2.10 2.03 1.83 1.68 1.67 1.62 1.49 1.43 1.47
0.93 0.92 0.93 0.98 1.00 0.99 0.97 0.97 0.98 0.98 0.96 1.01 1.05 1.08 1.12 1.20 1.20 1.11 1.13 1.22 1.33 1.37 1.40 1.39 1.51 1.81 2.12 2.18 2.09 1.93 1.99 2.10 1.88 1.74 1.69 1.70 1.66 1.63
0.84 0.86 0.86 0.90 0.96 1.00 0.97 0.96 0.96 0.93 0.93 0.97 0.98 0.99 1.02 1.10 1.13 1.09 1.12 1.20 1.21 1.23 1.29 1.31 1.37 1.63 2.01 2.24 2.11 1.88 1.87 2.05 2.22 2.05 1.80 1.73 1.89 2.00
0.86 0.85 0.84 0.85 0.90 0.95 0.99 0.99 0.95 0.88 0.86 0.91 0.93 0.92 0.95 1.02 1.01 1.05 1.08 1.12 1.17 1.18 1.24 1.33 1.37 1.54 1.83 2.01 2.11 2.01 1.87 1.87 1.97 2.08 2.17 1.91 1.59 1.53